When you browse on this site, cookies collect data to enhance your experience and personalize the content and advertising you see.
Visit our Privacy Policy to learn more. By continuing to use the site, you agree to this use of cookies and data.
  • In United Kingdom
  • List of Countries
  • For 7 days
  • Water Temperature
  • Weather Map
  • Weather Widgets
  • user-avatar
    Login

    Hourly Weather Abovyan

    Today, 15 September, Sunday

    Time Temperature Precipitation Wind Pressure Humidity
    00:00 +17°C° 0 mm 2 mps 674 mmHg 58%
    01:00 +16°C° 0 mm 1 mps 674 mmHg 59%
    02:00 +16°C° 0 mm 1 mps 673 mmHg 60%
    03:00 +16°C° 0 mm 1 mps 673 mmHg 61%
    04:00 +15°C° 0 mm 1 mps 673 mmHg 61%
    05:00 +15°C° 0 mm 1 mps 673 mmHg 61%
    06:00 +15°C° 0 mm 1 mps 674 mmHg 61%
    07:00 +18°C° 0 mm 1 mps 674 mmHg 54%
    08:00 +21°C° 0 mm 1 mps 674 mmHg 47%
    09:00 +23°C° 0 mm 1 mps 675 mmHg 40%
    10:00 +24°C° 0 mm 2 mps 675 mmHg 38%
    11:00 +25°C° 0 mm 2 mps 675 mmHg 35%
    12:00 +26°C° 0 mm 2 mps 675 mmHg 33%
    13:00 +27°C° 0 mm 2 mps 674 mmHg 32%
    14:00 +28°C° 0 mm 2 mps 674 mmHg 30%
    15:00 +28°C° 0 mm 2 mps 674 mmHg 30%
    16:00 +26°C° 0.1 mm 2 mps 674 mmHg 36%
    17:00 +25°C° 0.1 mm 1 mps 674 mmHg 43%
    18:00 +23°C° 0.1 mm 1 mps 674 mmHg 49%
    19:00 +22°C° 0.1 mm 1 mps 674 mmHg 54%
    20:00 +20°C° 0.1 mm 2 mps 674 mmHg 58%
    21:00 +19°C° 0.1 mm 2 mps 675 mmHg 63%
    22:00 +19°C° 0.2 mm 2 mps 675 mmHg 64%
    23:00 +19°C° 0.2 mm 2 mps 674 mmHg 66%

    Tomorrow, 16 September, Monday

    Time Temperature Precipitation Wind Pressure Humidity
    00:00 +18°C° 0.2 mm 2 mps 674 mmHg 68%
    01:00 +19°C° 0.6 mm 1 mps 674 mmHg 70%
    02:00 +18°C° 0.6 mm 1 mps 674 mmHg 73%
    03:00 +18°C° 0.6 mm 1 mps 674 mmHg 76%
    04:00 +18°C° 0.2 mm 1 mps 674 mmHg 76%
    05:00 +18°C° 0.2 mm 1 mps 674 mmHg 76%
    06:00 +16°C° 0.2 mm 1 mps 673 mmHg 77%
    07:00 +19°C° 0 mm 1 mps 673 mmHg 70%
    08:00 +21°C° 0 mm 1 mps 674 mmHg 62%
    09:00 +23°C° 0 mm 1 mps 674 mmHg 55%
    10:00 +24°C° 0 mm 2 mps 673 mmHg 51%
    11:00 +26°C° 0 mm 3 mps 673 mmHg 47%
    12:00 +27°C° 0 mm 3 mps 673 mmHg 42%
    13:00 +28°C° 0 mm 3 mps 673 mmHg 40%
    14:00 +28°C° 0 mm 3 mps 673 mmHg 38%
    15:00 +29°C° 0 mm 3 mps 672 mmHg 35%
    16:00 +28°C° 0 mm 2 mps 672 mmHg 40%
    17:00 +26°C° 0 mm 2 mps 672 mmHg 44%
    18:00 +25°C° 0 mm 1 mps 671 mmHg 48%
    19:00 +24°C° 0 mm 1 mps 672 mmHg 50%
    20:00 +23°C° 0 mm 2 mps 672 mmHg 52%
    21:00 +21°C° 0 mm 2 mps 672 mmHg 53%
    22:00 +21°C° 0 mm 2 mps 672 mmHg 55%
    23:00 +20°C° 0 mm 2 mps 672 mmHg 56%

    Day after tomorrow, 17 September, Tuesday

    Time Temperature Precipitation Wind Pressure Humidity
    00:00 +19°C° 0 mm 2 mps 672 mmHg 58%
    01:00 +19°C° 0 mm 2 mps 671 mmHg 58%
    02:00 +20°C° 0 mm 1 mps 671 mmHg 57%
    03:00 +19°C° 0 mm 1 mps 671 mmHg 57%
    04:00 +19°C° 0 mm 1 mps 671 mmHg 57%
    05:00 +19°C° 0 mm 1 mps 671 mmHg 57%
    06:00 +18°C° 0 mm 1 mps 670 mmHg 57%
    07:00 +21°C° 0 mm 1 mps 671 mmHg 50%
    08:00 +23°C° 0 mm 2 mps 671 mmHg 44%
    09:00 +25°C° 0 mm 2 mps 672 mmHg 37%
    10:00 +27°C° 0 mm 2 mps 672 mmHg 34%
    11:00 +28°C° 0 mm 3 mps 671 mmHg 31%
    12:00 +29°C° 0 mm 3 mps 671 mmHg 28%
    13:00 +29°C° 0 mm 3 mps 671 mmHg 26%
    14:00 +30°C° 0 mm 3 mps 671 mmHg 25%
    15:00 +30°C° 0 mm 3 mps 670 mmHg 23%
    16:00 +29°C° 0 mm 3 mps 670 mmHg 26%
    17:00 +28°C° 0 mm 2 mps 670 mmHg 29%
    18:00 +26°C° 0 mm 2 mps 670 mmHg 31%
    19:00 +25°C° 0.1 mm 3 mps 670 mmHg 36%
    20:00 +22°C° 0.1 mm 4 mps 671 mmHg 41%
    21:00 +21°C° 0.1 mm 5 mps 672 mmHg 46%
    22:00 +20°C° 0.1 mm 4 mps 671 mmHg 48%
    23:00 +19°C° 0.1 mm 3 mps 671 mmHg 49%

    18 September, Wednesday

    Time Temperature Precipitation Wind Pressure Humidity
    00:00 +19°C° 0.1 mm 2 mps 671 mmHg 50%
    01:00 +18°C° 0 mm 2 mps 672 mmHg 50%
    02:00 +18°C° 0 mm 2 mps 672 mmHg 50%
    03:00 +18°C° 0 mm 2 mps 672 mmHg 50%
    04:00 +17°C° 0 mm 2 mps 672 mmHg 51%
    05:00 +17°C° 0 mm 2 mps 672 mmHg 51%
    06:00 +16°C° 0 mm 2 mps 672 mmHg 52%
    07:00 +19°C° 0 mm 2 mps 673 mmHg 47%
    08:00 +21°C° 0 mm 2 mps 674 mmHg 41%
    09:00 +24°C° 0 mm 2 mps 675 mmHg 36%
    10:00 +25°C° 0 mm 2 mps 675 mmHg 33%
    11:00 +26°C° 0 mm 2 mps 675 mmHg 30%
    12:00 +28°C° 0 mm 2 mps 675 mmHg 26%
    13:00 +28°C° 0 mm 1 mps 675 mmHg 25%
    14:00 +29°C° 0 mm 1 mps 674 mmHg 23%
    15:00 +29°C° 0 mm 1 mps 674 mmHg 21%
    16:00 +27°C° 0 mm 1 mps 674 mmHg 25%
    17:00 +26°C° 0 mm 1 mps 673 mmHg 28%
    18:00 +24°C° 0 mm 1 mps 673 mmHg 32%
    19:00 +23°C° 0 mm 1 mps 673 mmHg 32%
    20:00 +23°C° 0 mm 1 mps 673 mmHg 31%
    21:00 +21°C° 0 mm 2 mps 674 mmHg 31%
    22:00 +21°C° 0 mm 1 mps 674 mmHg 32%
    23:00 +21°C° 0 mm 1 mps 673 mmHg 33%

    19 September, Thursday

    Time Temperature Precipitation Wind Pressure Humidity
    00:00 +20°C° 0 mm 1 mps 673 mmHg 34%
    01:00 +20°C° 0 mm 1 mps 673 mmHg 36%
    02:00 +19°C° 0 mm 1 mps 673 mmHg 37%
    03:00 +19°C° 0 mm 1 mps 673 mmHg 38%
    04:00 +19°C° 0 mm 1 mps 673 mmHg 39%
    05:00 +18°C° 0 mm 1 mps 672 mmHg 40%
    06:00 +18°C° 0 mm 1 mps 672 mmHg 40%
    07:00 +20°C° 0 mm 1 mps 673 mmHg 36%
    08:00 +23°C° 0 mm 1 mps 673 mmHg 32%
    09:00 +26°C° 0 mm 1 mps 674 mmHg 27%
    10:00 +27°C° 0 mm 1 mps 674 mmHg 26%
    11:00 +28°C° 0 mm 2 mps 674 mmHg 24%
    12:00 +29°C° 0 mm 2 mps 674 mmHg 22%
    13:00 +30°C° 0 mm 2 mps 673 mmHg 20%
    14:00 +30°C° 0 mm 2 mps 673 mmHg 19%
    15:00 +31°C° 0 mm 2 mps 673 mmHg 17%
    16:00 +29°C° 0 mm 1 mps 672 mmHg 21%
    17:00 +27°C° 0 mm 1 mps 672 mmHg 24%
    18:00 +25°C° 0 mm 1 mps 672 mmHg 27%
    19:00 +24°C° 0 mm 1 mps 672 mmHg 28%
    20:00 +24°C° 0 mm 2 mps 672 mmHg 29%
    21:00 +23°C° 0 mm 2 mps 672 mmHg 30%
    22:00 +21°C° 0 mm 2 mps 672 mmHg 32%
    23:00 +21°C° 0 mm 2 mps 672 mmHg 34%

    20 September, Friday

    Time Temperature Precipitation Wind Pressure Humidity
    00:00 +20°C° 0 mm 2 mps 672 mmHg 36%
    01:00 +20°C° 0 mm 2 mps 672 mmHg 38%
    02:00 +19°C° 0 mm 2 mps 671 mmHg 40%
    03:00 +19°C° 0 mm 1 mps 671 mmHg 42%
    04:00 +19°C° 0 mm 1 mps 671 mmHg 43%
    05:00 +19°C° 0 mm 1 mps 671 mmHg 45%
    06:00 +18°C° 0 mm 1 mps 671 mmHg 46%
    07:00 +21°C° 0 mm 1 mps 671 mmHg 40%
    08:00 +23°C° 0 mm 2 mps 671 mmHg 34%
    09:00 +26°C° 0 mm 2 mps 672 mmHg 29%
    10:00 +27°C° 0 mm 2 mps 672 mmHg 26%
    11:00 +29°C° 0 mm 3 mps 671 mmHg 23%
    12:00 +30°C° 0 mm 3 mps 671 mmHg 20%
    13:00 +31°C° 0 mm 3 mps 671 mmHg 19%
    14:00 +31°C° 0 mm 3 mps 670 mmHg 18%
    15:00 +33°C° 0 mm 3 mps 670 mmHg 17%
    16:00 +30°C° 0 mm 3 mps 669 mmHg 19%
    17:00 +28°C° 0 mm 2 mps 669 mmHg 21%
    18:00 +27°C° 0 mm 2 mps 669 mmHg 24%
    19:00 +26°C° 0 mm 2 mps 669 mmHg 24%
    20:00 +25°C° 0 mm 2 mps 669 mmHg 24%
    21:00 +25°C° 0 mm 2 mps 669 mmHg 24%
    22:00 +24°C° 0 mm 2 mps 669 mmHg 25%
    23:00 +23°C° 0 mm 2 mps 669 mmHg 27%
    Show more